[[{"header":{"parameterUnit":"m.s-1","parameterCategory":1,"la1":30.2991,"la2":30.254,"lo1":-89.0895,"lo2":-89.0444,"dy":0.0017,"dx":0.0017,"nx":28,"ny":28,"refTime":"2025-01-19T09:00:00:Z","depth":0,"parameterNumber":2,"parameterNumberName":"U-component_of_WINDS"},"data":[0,0,0,0,0,0,0,0,0,0,0,0,0,0,0,0,0,0,0,0,0,0,0,0,0,0,0,0,0,0,0,0,0,0,0,0,0,0,0,0,0,0,0,0,0,0,0,0,0,0,0,0,0,0,0,0,0,0,3.1721,3.1721,0,3.172,3.172,3.172,3.1675,3.1674,3.1672,3.1671,3.1671,3.1672,3.1673,0,0,0,0,0,0,0,0,0,0,0,0,0,3.1686,3.1687,3.1721,3.1721,3.1721,3.172,3.172,3.172,3.1675,3.1674,3.1672,3.1671,3.1671,3.1672,3.1673,0,0,0,0,0,0,0,0,0,0,0,0,0,3.1695,3.1687,3.1721,3.1699,3.1697,3.172,3.172,3.172,3.1675,3.1674,3.1672,3.167,3.167,3.1672,3.1673,3.1719,0,0,3.1678,3.1679,0,0,0,0,0,0,0,0,3.1694,3.1696,3.1702,3.17,3.1698,3.1696,3.1708,3.172,3.1676,3.1683,3.1671,3.1669,3.1681,3.1681,3.1685,3.1719,3.1719,3.1679,3.168,3.168,3.1681,0,0,0,0,0,0,0,3.1694,3.1696,3.1721,3.1702,3.17,3.1689,3.1688,3.171,3.1692,3.1683,3.1679,3.168,3.1679,3.1684,3.1685,3.1719,3.1679,3.168,3.1681,3.1682,3.1793,3.1794,0,0,0,0,0,0,3.1696,3.1696,3.1721,3.1721,3.1692,3.1691,3.169,3.1698,3.1692,3.1689,3.1681,3.1678,3.1682,3.1683,3.1685,3.1739,3.168,3.1682,3.1683,3.1791,3.1793,3.1795,0,0,0,0,0,0,3.1696,3.1699,3.1721,3.1708,3.1709,3.1694,3.1703,3.1699,3.1703,3.1691,3.1687,3.1689,3.168,3.1682,3.1711,3.1738,3.1683,3.1684,3.1788,3.1791,3.1794,3.1846,0,0,0,0,0,0,3.1695,3.1699,3.1715,3.1708,3.171,3.1747,3.1705,3.1701,3.1706,3.1702,3.1697,3.1694,3.1679,3.1709,3.1713,3.1739,3.1685,3.1786,3.179,3.1793,3.1842,3.1851,3.1858,0,0,0,0,0,3.1694,3.173,3.1717,3.172,3.1731,3.1749,3.175,3.1731,3.1709,3.1726,3.1718,3.1695,3.1735,3.1712,3.1716,3.1744,3.1784,3.1789,3.1793,3.1839,3.1849,3.1858,0,0,0,0,0,0,3.174,3.1729,3.1713,3.1748,3.175,3.1741,3.1762,3.1743,3.1751,3.1746,3.1723,3.1722,3.1755,3.1752,3.1728,3.1788,3.1755,3.1761,3.1789,3.1799,3.1807,3.1806,3.1687,0,0,0,0,0,3.1755,3.177,3.1759,3.1791,3.1793,3.1778,3.1784,3.177,3.1771,3.1771,3.1765,3.1767,3.1781,3.179,3.1801,3.1842,3.1841,3.1863,3.1871,3.1877,3.1882,3.1905,3.1915,3.181,3.181,3.1809,0,0,3.1785,3.178,3.1791,3.1801,3.18,3.1817,3.1778,3.1797,3.181,3.1774,3.1801,3.1798,3.1798,3.1834,3.1849,3.1832,3.1911,3.1883,3.1888,3.189,3.1911,3.1921,3.193,3.1813,3.1812,3.1812,0,0,3.1848,3.1846,3.1873,3.1873,3.1873,3.1863,3.187,3.1864,3.186,3.1887,3.1861,3.1877,3.1899,3.1901,3.1905,3.1972,3.1951,3.1976,3.2018,3.204,3.2049,3.2056,3.208,3.2089,3.1981,3.1981,3.1982,0,3.1885,3.1909,3.1889,3.191,3.1916,3.1885,3.1913,3.1915,3.1918,3.1923,3.1904,3.1934,3.1932,3.1968,3.1985,3.1989,3.1996,3.1976,3.2049,3.2056,3.2062,3.2085,3.2095,3.1985,3.1984,3.1984,3.1984,0,3.1955,3.1972,3.1994,3.1999,3.2007,3.2032,3.2016,3.2027,3.2013,3.2005,3.2034,3.2031,3.2042,3.205,3.2036,3.2085,3.2074,3.2053,3.2019,3.2076,3.2097,3.2106,3.1989,3.1988,3.1987,3.1986,0,0,3.2045,3.2041,3.2049,3.2051,3.205,3.2064,3.2088,3.2098,3.2108,3.2113,3.2133,3.2154,3.2134,3.2139,3.2126,3.2146,3.22,3.2121,3.2121,3.2136,3.2255,3.2271,3.2281,3.2186,3.2188,3.2189,3.2255,0,3.2107,3.2147,3.213,3.2172,3.2189,3.2161,3.2182,3.2184,3.2178,3.2192,3.2186,3.2201,3.2174,3.2177,3.2195,3.2189,3.2223,3.2184,3.2205,3.2206,3.2205,3.2292,3.2309,3.237,3.2263,3.2264,3.2265,0,3.2183,3.2191,3.2234,3.2232,3.2238,3.2257,3.2267,3.228,3.2283,3.2277,3.2284,3.2266,3.2291,3.2258,3.2292,3.2266,3.2274,3.2273,3.2275,3.2275,3.2239,3.2295,3.2389,3.2399,3.2278,3.2277,3.2276,0,3.2245,3.2267,3.2296,3.2299,3.2297,3.2311,3.2311,3.2312,3.232,3.2329,3.2334,3.2346,3.2352,3.2362,3.2348,3.2326,3.2385,3.235,3.2381,3.2382,3.2394,3.2393,3.2491,3.24,3.24,3.24,3.24,0,3.2315,3.2343,3.2324,3.2342,3.2373,3.2355,3.2386,3.2383,3.2385,3.2402,3.2379,3.2396,3.2378,3.2394,3.2384,3.2414,3.2417,3.2414,3.241,3.2415,3.2416,3.242,3.2415,3.2402,3.2402,3.2401,3.2401,0,3.2389,3.2378,3.2408,3.2404,3.2404,3.2427,3.2423,3.244,3.2434,3.2456,3.2461,3.245,3.2468,3.2456,3.2473,3.2467,3.2506,3.2497,3.2505,3.2503,3.2535,3.2532,3.2638,3.2651,3.2552,3.2553,3.2553,0,3.2434,3.2455,3.2453,3.2464,3.2465,3.2482,3.249,3.2474,3.2484,3.249,3.2507,3.2522,3.2534,3.2563,3.2558,3.2571,3.2563,3.2599,3.2564,3.2569,3.2564,3.2562,3.2565,3.2606,3.2607,3.2608,3.2609,0,3.2515,3.2509,3.2522,3.2534,3.2545,3.2553,3.256,3.257,3.2554,3.2566,3.2584,3.2593,3.2612,3.2628,3.264,3.264,3.2622,3.262,3.2628,3.2633,3.2636,3.2635,3.2524,3.2617,3.2616,3.2616,3.2615,3.2615,3.2576,3.2594,3.2596,3.2612,3.2615,3.2623,3.2639,3.2635,3.2649,3.2663,3.2653,3.2675,3.2679,3.2693,3.2696,3.2713,3.2698,3.271,3.2712,3.2716,3.272,3.2634,3.2715,3.2715,3.2715,3.2715,3.2714,0,3.2656,3.2657,3.2672,3.2682,3.2695,3.2677,3.2684,3.2696,3.2716,3.2721,3.2733,3.2755,3.2771,3.2767,3.2782,3.2797,3.2789,3.2801,3.28,3.28,3.2732,3.2724,3.2807,3.2807,3.2807,3.2807,3.2807,3.2807,3.2699,3.2729,3.2723,3.2755,3.2756,3.2777,3.2782,3.2789,3.2794,3.2819,3.2832,3.283,3.2832,3.2847,3.2862,3.286,3.2867,3.2882,3.2878,3.2814,3.2805,3.2796,3.2788,3.2884,3.2884,3.2945,3.2946,3.2946]},{"header":{"parameterUnit":"m.s-1","parameterCategory":1,"la1":30.2991,"la2":30.254,"lo1":-89.0895,"lo2":-89.0444,"dy":0.0017,"dx":0.0017,"nx":28,"ny":28,"refTime":"2025-01-19T09:00:00:Z","depth":0,"parameterNumber":3,"parameterNumberName":"V-component_of_WINDS"},"data":[0,0,0,0,0,0,0,0,0,0,0,0,0,0,0,0,0,0,0,0,0,0,0,0,0,0,0,0,0,0,0,0,0,0,0,0,0,0,0,0,0,0,0,0,0,0,0,0,0,0,0,0,0,0,0,0,0,0,-6.8588,-6.859,0,-6.8754,-6.8755,-6.8757,-6.8719,-6.8716,-6.8713,-6.871,-6.8875,-6.8882,-6.889,0,0,0,0,0,0,0,0,0,0,0,0,0,-6.8235,-6.8242,-6.8588,-6.859,-6.8592,-6.8753,-6.8756,-6.8758,-6.872,-6.8716,-6.8712,-6.8709,-6.8873,-6.8882,-6.889,0,0,0,0,0,0,0,0,0,0,0,0,0,-6.8393,-6.8244,-6.8587,-6.8592,-6.8594,-6.8753,-6.8756,-6.8758,-6.8721,-6.8716,-6.8711,-6.8707,-6.887,-6.8881,-6.8892,-6.9054,0,0,-6.8925,-6.893,0,0,0,0,0,0,0,0,-6.8384,-6.8406,-6.859,-6.8592,-6.8595,-6.8711,-6.8692,-6.8857,-6.8722,-6.8673,-6.871,-6.8704,-6.8824,-6.8839,-6.888,-6.9062,-6.9069,-6.8926,-6.8933,-6.8938,-6.8941,0,0,0,0,0,0,0,-6.8373,-6.8399,-6.8653,-6.8592,-6.8596,-6.8585,-6.8603,-6.8723,-6.8773,-6.8676,-6.8674,-6.8695,-6.8825,-6.8869,-6.8884,-6.9071,-6.8926,-6.8936,-6.8942,-6.8947,-6.9396,-6.9401,0,0,0,0,0,0,-6.836,-6.839,-6.8648,-6.8658,-6.8476,-6.8596,-6.8615,-6.8678,-6.8771,-6.8781,-6.8698,-6.8692,-6.8853,-6.8871,-6.8889,-6.9087,-6.8937,-6.8948,-6.8954,-6.939,-6.9397,-6.9403,0,0,0,0,0,0,-6.8353,-6.8384,-6.8641,-6.8524,-6.8555,-6.8607,-6.8678,-6.8684,-6.8729,-6.8788,-6.8796,-6.8735,-6.885,-6.8874,-6.9014,-6.9092,-6.8953,-6.8963,-6.9384,-6.9392,-6.94,-6.9482,0,0,0,0,0,0,-6.8343,-6.8381,-6.8444,-6.8525,-6.8562,-6.8764,-6.8683,-6.8691,-6.8749,-6.8742,-6.8825,-6.8834,-6.8848,-6.8998,-6.9025,-6.9105,-6.8971,-6.9377,-6.9388,-6.9397,-6.9473,-6.9492,-6.9509,0,0,0,0,0,-6.8331,-6.8459,-6.8448,-6.8479,-6.8642,-6.8769,-6.879,-6.8805,-6.8755,-6.8818,-6.8856,-6.8831,-6.9079,-6.9012,-6.9043,-6.9127,-6.9372,-6.9385,-6.9396,-6.9465,-6.9488,-6.9508,0,0,0,0,0,0,-6.8384,-6.847,-6.8458,-6.8617,-6.8686,-6.8762,-6.8842,-6.8829,-6.8913,-6.8903,-6.8917,-6.8936,-6.9079,-6.9116,-6.9041,-6.9289,-6.9218,-6.9237,-6.926,-6.9283,-6.93,-6.9289,-6.898,0,0,0,0,0,-6.8415,-6.8512,-6.8581,-6.8715,-6.875,-6.8791,-6.8847,-6.8853,-6.8924,-6.8953,-6.9001,-6.907,-6.9164,-6.9225,-6.9314,-6.9478,-6.9496,-6.955,-6.9568,-6.9583,-6.9599,-6.969,-6.9715,-6.9442,-6.9442,-6.9442,0,0,-6.8478,-6.8537,-6.8598,-6.8727,-6.8782,-6.8882,-6.8815,-6.8923,-6.8998,-6.8968,-6.9105,-6.9143,-6.9221,-6.9374,-6.9444,-6.941,-6.9678,-6.9598,-6.9609,-6.9618,-6.9705,-6.973,-6.9753,-6.945,-6.9449,-6.9447,0,0,-6.8646,-6.87,-6.8818,-6.8875,-6.8959,-6.8985,-6.9013,-6.9092,-6.9117,-6.9255,-6.9236,-6.9323,-6.9483,-6.9541,-6.9591,-6.9782,-6.9763,-6.9811,-6.9904,-6.9993,-7.0014,-7.0033,-7.0103,-7.0127,-6.9826,-6.9826,-6.9827,0,-6.8714,-6.8865,-6.888,-6.8992,-6.9049,-6.903,-6.915,-6.9203,-6.9311,-6.9351,-6.9312,-6.9515,-6.9565,-6.9733,-6.978,-6.982,-6.9853,-6.9802,-7.001,-7.0029,-7.0047,-7.0114,-7.014,-6.9832,-6.9831,-6.9831,-6.983,0,-6.8946,-6.9051,-6.9136,-6.9244,-6.9311,-6.9426,-6.9458,-6.9524,-6.9524,-6.9554,-6.9695,-6.9756,-6.9858,-6.9898,-6.9898,-7.0066,-7.0042,-7.0006,-6.9935,-7.0079,-7.0142,-7.0167,-6.984,-6.9838,-6.9836,-6.9835,0,0,-6.9151,-6.9267,-6.9298,-6.9348,-6.944,-6.9521,-6.9635,-6.9737,-6.9794,-6.9869,-6.9965,-7.0102,-7.0071,-7.0127,-7.0134,-7.0211,-7.0361,-7.0166,-7.0168,-7.0202,-7.0551,-7.0578,-7.0607,-7.0348,-7.0353,-7.0357,-7.0545,0,-6.9328,-6.9531,-6.9549,-6.9731,-6.9828,-6.9812,-6.9911,-6.9978,-7.0009,-7.0096,-7.013,-7.0228,-7.0178,-7.0212,-7.0288,-7.0327,-7.0431,-7.0313,-7.0438,-7.0442,-7.042,-7.064,-7.0669,-7.0843,-7.0569,-7.0573,-7.0576,0,-6.9562,-6.9647,-6.9839,-6.9919,-6.9961,-7.005,-7.0146,-7.0229,-7.0304,-7.0322,-7.0387,-7.0384,-7.05,-7.0425,-7.0586,-7.0505,-7.0557,-7.0584,-7.0591,-7.0604,-7.0519,-7.066,-7.0899,-7.0926,-7.0615,-7.0612,-7.0609,0,-6.9694,-6.9856,-6.9993,-7.0036,-7.0132,-7.0195,-7.0238,-7.0309,-7.037,-7.0453,-7.0493,-7.0587,-7.0639,-7.0712,-7.0735,-7.0677,-7.0896,-7.0821,-7.0914,-7.0913,-7.0961,-7.0958,-7.1213,-7.0992,-7.0992,-7.0991,-7.0991,0,-6.9891,-7.0009,-7.0055,-7.0139,-7.0271,-7.029,-7.042,-7.0459,-7.0523,-7.0614,-7.0604,-7.069,-7.0713,-7.0803,-7.0821,-7.0952,-7.0975,-7.0993,-7.0996,-7.0995,-7.0993,-7.1029,-7.1018,-7.0998,-7.0997,-7.0995,-7.0994,0,-7.0062,-7.0096,-7.0245,-7.0325,-7.0348,-7.0442,-7.051,-7.0591,-7.0621,-7.0736,-7.0764,-7.0812,-7.0917,-7.0946,-7.1071,-7.1083,-7.1239,-7.123,-7.1214,-7.1215,-7.1306,-7.1297,-7.1594,-7.1634,-7.1386,-7.1389,-7.1391,0,-7.0185,-7.0277,-7.0367,-7.0429,-7.0475,-7.0573,-7.0636,-7.0658,-7.0723,-7.0817,-7.0887,-7.0991,-7.1076,-7.1244,-7.1289,-7.1385,-7.138,-7.1477,-7.1394,-7.139,-7.1383,-7.1378,-7.1388,-7.1493,-7.1496,-7.1498,-7.15,0,-7.0402,-7.0415,-7.0507,-7.0605,-7.0681,-7.0759,-7.0834,-7.0884,-7.0916,-7.099,-7.1099,-7.1165,-7.1294,-7.1398,-7.1496,-7.1538,-7.1525,-7.1526,-7.1552,-7.1552,-7.154,-7.1549,-7.1259,-7.1519,-7.1517,-7.1515,-7.1514,-7.1514,-7.0554,-7.0635,-7.0713,-7.0815,-7.0874,-7.0945,-7.1026,-7.1067,-7.1159,-7.1267,-7.1274,-7.1392,-7.1466,-7.1596,-7.1644,-7.1736,-7.1707,-7.1746,-7.1756,-7.1765,-7.1774,-7.1524,-7.1754,-7.1753,-7.1753,-7.1752,-7.1752,0,-7.0771,-7.0821,-7.0915,-7.1022,-7.1103,-7.1085,-7.1167,-7.1236,-7.134,-7.1411,-7.1495,-7.1621,-7.1722,-7.1775,-7.1876,-7.1939,-7.1936,-7.1965,-7.1961,-7.1971,-7.1793,-7.1761,-7.1966,-7.1966,-7.1966,-7.1966,-7.1966,-7.1966,-7.0894,-7.1031,-7.1054,-7.1221,-7.1269,-7.1386,-7.1435,-7.15,-7.1557,-7.1698,-7.1783,-7.1818,-7.1882,-7.1987,-7.2079,-7.2092,-7.213,-7.2163,-7.2173,-7.2005,-7.1984,-7.1963,-7.1933,-7.2171,-7.2171,-7.2344,-7.2345,-7.2346]}]]